Retour au catalogue

CZ-4B DEB

ActifSSO
NORAD 43661·DEBRIS·🇨🇳 China

Lancé Oct 24, 2018 depuis Taiyuan Satellite Launch Center

Loading…

Prochains Passages (prochaines 24 heures)

TLE

FraisSource: Space-Track

Époque: Sep 14, 2026, 12:58 UTC

1 43661U 18081E   26257.54076133  .00000038  00000-0  66378-4 0  9994
2 43661  99.1193 285.6450 0014112  96.3745 263.9021 13.89494886400015

Suivez CZ-4B DEB en temps réel avec AllMySat

Download on the App Store